Weather observations for the past three days for
Dickson Municipal Airport
Metric (Imperial)
Date Time (cdt) Wind (kph) Vis. (km) Weather Sky Cond. Temperature (ºC) Relative Humidity Wind Chill (°C) Heat Index (°C) Pressure Precipitation (cm)
Air Dwpt 6 hour altimeter (cm) sea level (mb) 1 hr 3 hr 6 hr
Max. Min.
01 18:35 Calm 16.09 NULL NULL 31 21 55% 34 76.33 0.0
01 18:15 Calm 16.09 NULL NULL 33 20 46% 35 76.35 0.0
01 17:55 SW 6 16.09 NULL NULL 34 19 41% 36 76.35 0.0
01 17:35 SW 7 16.09 NULL NULL 34 18 39% 35 76.35 0.0
01 17:15 Vrbl 6 16.09 NULL NULL 34 20 44% 36 76.35 0.0
01 16:55 S 7 16.09 NULL NULL 34 20 44% 36 76.33 0.0
01 16:35 S 9 16.09 NULL NULL 35 19 39% 37 76.35 0.0
01 16:15 Calm 16.09 NULL NULL 34 19 41% 36 76.35 0.0
01 15:55 Calm 16.09 NULL NULL 34 20 44% 36 76.35 0.0
01 15:35 Calm 16.09 NULL NULL 34 20 44% 36 76.38 0.0
01 15:10 Calm 16.09 NULL NULL 35 20 41% 38 76.38 0.0
01 14:50 Vrbl 7 16.09 NULL NULL 34 20 44% 36 76.38 0.0
01 14:30 SE 7 16.09 NULL NULL 34 21 47% 37 76.4 0.0
01 14:15 Vrbl 7 16.09 NULL NULL 35 21 44% 38 76.43 0.0
01 13:55 Vrbl 11 16.09 NULL NULL 35 21 44% 38 76.43 0.0
01 13:35 Vrbl 6 16.09 NULL NULL 34 21 47% 37 76.45 0.0
01 13:15 Vrbl 9 16.09 NULL NULL 33 21 49% 36 76.45 0.0
01 12:55 Vrbl 7 16.09 NULL NULL 34 21 47% 37 76.48 0.0
01 12:35 Calm 16.09 NULL NULL 33 20 46% 35 76.5 0.0
01 12:15 W 7 16.09 NULL NULL 33 21 49% 36 76.53 0.0
01 11:55 SW 13 16.09 NULL NULL 33 21 49% 36 76.53 0.0
01 11:35 Vrbl 11 16.09 NULL NULL 33 21 49% 36 76.56 0.0
01 11:15 W 7 G 20 16.09 NULL NULL 32 21 52% 35 76.56 0.0
01 10:55 W 9 16.09 NULL NULL 32 22 55% 36 76.56 0.0
01 10:35 W 11 16.09 NULL NULL 32 22 55% 36 76.56 0.0
01 10:15 Vrbl 6 16.09 NULL NULL 31 22 59% 35 76.56 0.0
01 09:55 W 9 16.09 NULL NULL 31 22 59% 35 76.56 0.0
01 09:35 SW 15 16.09 NULL NULL 30 22 62% 33 76.56 0.0
01 09:15 SW 11 16.09 NULL NULL 30 22 62% 33 76.56 0.0
01 08:55 W 9 16.09 NULL NULL 29 22 66% 32 76.56 0.0
01 08:35 SW 7 16.09 NULL NULL 28 22 70% 31 76.56 0.0
01 08:15 W 9 16.09 NULL NULL 28 22 70% 31 76.56 0.0
01 07:55 SW 9 16.09 NULL NULL 27 21 70% 29 76.56 0.0
01 07:35 Calm 16.09 NULL NULL 26 22 79% 28 76.53 0.0
01 07:15 Calm 16.09 NULL NULL 25 21 79% 26 76.53 0.0
01 06:55 Calm 16.09 NULL NULL 24 21 83% 24 76.5 0.0
01 06:35 SW 7 16.09 NULL NULL 24 21 83% 24 76.48 0.0
01 06:15 Calm 16.09 NULL NULL 23 21 89% 76.45 0.0
01 05:55 Calm 16.09 NULL NULL 23 21 89% 76.45 0.0
01 05:35 Calm 16.09 NULL NULL 24 21 83% 24 76.45 0.0
01 05:15 Calm 16.09 NULL NULL 24 21 83% 24 76.43 0.0
01 04:55 SW 7 16.09 NULL NULL 24 21 83% 24 76.43 0.0
01 04:35 S 9 16.09 NULL NULL 24 21 83% 24 76.43 0.0
01 04:15 SW 7 16.09 NULL NULL 24 21 83% 24 76.43 0.0
01 03:55 S 6 16.09 NULL NULL 24 21 83% 24 76.43 0.0
01 03:35 Calm 16.09 NULL NULL 24 21 83% 24 76.4 0.0
01 03:15 SW 7 16.09 NULL NULL 24 21 83% 24 76.4 0.0
01 02:55 Calm 16.09 NULL NULL 24 22 89% 24 76.4 0.0
01 02:35 Calm 16.09 NULL NULL 23 22 94% 76.4 0.0
01 02:15 S 6 16.09 NULL NULL 24 21 83% 24 76.4 0.0
01 01:55 Calm 16.09 NULL NULL 25 21 79% 26 76.4 0.0
01 01:35 S 6 16.09 NULL NULL 24 21 83% 24 76.4 0.0
01 01:15 Calm 16.09 NULL NULL 24 22 89% 24 76.4 0.0
01 00:50 Calm 16.09 NULL NULL 24 22 89% 24 76.43 0.0
01 00:35 Calm 16.09 NULL NULL 24 22 89% 24 76.43 0.0
01 00:15 Calm 16.09 NULL NULL 24 22 89% 24 76.43 0.0
31 23:55 Calm 16.09 NULL NULL 24 22 89% 24 76.43 0.0
31 23:35 Calm 16.09 NULL NULL 24 22 89% 24 76.43 0.0
31 23:15 Calm 16.09 NULL NULL 24 22 89% 24 76.43 0.0
31 22:55 Calm 16.09 NULL NULL 24 22 89% 24 76.43 0.0
31 22:35 Calm 16.09 NULL NULL 24 22 89% 24 76.43 0.0
31 22:15 Calm 16.09 NULL NULL 24 23 94% 23 76.4 0.0
31 21:55 Calm 16.09 NULL NULL 24 23 94% 23 76.4 0.0
31 21:35 Calm 16.09 NULL NULL 25 22 83% 26 76.4 0.0
31 21:15 Calm 16.09 NULL NULL 25 22 83% 26 76.38 0.0
31 20:55 Calm 16.09 NULL NULL 25 22 83% 26 76.38 0.0
31 20:35 Calm 16.09 NULL NULL 26 22 79% 28 76.35 0.0
31 20:15 Calm 16.09 NULL NULL 26 22 79% 28 76.35 0.0
31 19:55 Calm 16.09 NULL NULL 26 22 79% 28 76.35 0.0
31 19:35 Calm 16.09 NULL NULL 27 23 79% 30 76.35 0.0
31 19:15 Calm 16.09 NULL NULL 28 23 74% 31 76.35 0.0
31 18:35 Calm 16.09 NULL NULL 30 22 62% 33 76.35 0.0
31 18:15 SW 6 16.09 NULL NULL 32 21 52% 35 76.35 0.0
31 17:50 Calm 16.09 NULL NULL 33 21 49% 36 76.38 0.0
31 17:30 W 6 16.09 NULL NULL 33 20 46% 35 76.38 0.0
31 17:15 Calm 16.09 NULL NULL 33 20 46% 35 76.38 0.0
31 16:55 Calm 16.09 NULL NULL 33 20 46% 35 76.4 0.0
31 16:35 W 7 16.09 NULL NULL 33 20 46% 35 76.4 0.0
31 16:15 Calm 16.09 NULL NULL 34 21 47% 37 76.4 0.0
31 15:55 Calm 16.09 NULL NULL 33 21 49% 36 76.43 0.0
31 15:35 Vrbl 6 16.09 NULL NULL 34 20 44% 36 76.43 0.0
31 15:15 Vrbl 11 16.09 NULL NULL 34 21 47% 37 76.43 0.0
31 14:55 Vrbl 7 16.09 NULL NULL 33 20 46% 35 76.45 0.0
31 14:35 Calm 16.09 NULL NULL 33 21 49% 36 76.45 0.0
31 14:15 W 7 G 19 16.09 NULL NULL 34 21 47% 37 76.48 0.0
31 13:55 Vrbl 6 16.09 NULL NULL 33 20 46% 35 76.48 0.0
31 13:35 SW 7 G 19 16.09 NULL NULL 33 21 49% 36 76.5 0.0
31 13:15 SW 13 16.09 NULL NULL 33 21 49% 36 76.5 0.0
31 12:55 W 7 16.09 NULL NULL 33 21 49% 36 76.53 0.0
31 12:35 W 13 G 22 16.09 NULL NULL 33 21 49% 36 76.56 0.0
31 12:15 Calm 16.09 NULL NULL 32 21 52% 35 76.58 0.0
31 11:55 Vrbl 9 16.09 NULL NULL 32 21 52% 35 76.58 0.0
31 11:35 SW 9 16.09 NULL NULL 31 22 59% 35 76.61 0.0
31 11:15 SW 13 16.09 NULL NULL 32 22 55% 36 76.61 0.0
31 10:55 Vrbl 9 16.09 NULL NULL 31 23 62% 35 76.61 0.0
31 10:35 SW 11 16.09 NULL NULL 31 22 59% 35 76.58 0.0
31 10:15 SW 15 16.09 NULL NULL 30 22 62% 33 76.58 0.0
31 09:55 SW 15 16.09 NULL NULL 30 23 66% 34 76.58 0.0
31 09:35 SW 13 16.09 NULL NULL 29 22 66% 32 76.56 0.0
31 09:15 SW 11 16.09 NULL NULL 29 22 66% 32 76.56 0.0
31 08:55 SW 13 16.09 NULL NULL 28 22 70% 31 76.56 0.0
31 08:35 S 13 16.09 NULL NULL 27 22 74% 29 76.56 0.0
31 08:15 S 9 16.09 NULL NULL 27 22 74% 29 76.56 0.0
31 07:55 S 11 16.09 NULL NULL 26 22 79% 28 76.53 0.0
31 07:35 S 13 16.09 NULL NULL 25 21 79% 26 76.5 0.0
31 07:15 S 13 16.09 NULL NULL 24 21 83% 24 76.5 0.0
31 06:55 S 9 16.09 NULL NULL 23 21 89% 76.5 0.0
31 06:35 Calm 16.09 NULL NULL 22 21 94% 76.5 0.0
31 06:20 Calm 16.09 NULL NULL 23 21 89% 76.5 0.0
31 05:55 S 7 16.09 Fair CLR 23 21 89% 76.48 0.0
31 05:15 S 7 16.09 Fair CLR 23 21 89% 76.43 0.0
31 04:50 S 7 16.09 Fair CLR 23 21 89% 76.43 0.0
31 04:35 S 7 16.09 Fair CLR 24 21 83% 24 76.43 0.0
31 04:15 S 7 16.09 Fair CLR 23 21 89% 76.4 0.0
31 03:55 S 9 16.09 Fair CLR 24 21 83% 24 76.4 0.0
31 03:35 S 7 16.09 Fair CLR 24 21 83% 24 76.4 0.0
31 03:15 S 9 16.09 Fair CLR 24 21 83% 24 76.4 0.0
31 02:55 S 9 16.09 Fair CLR 24 21 83% 24 76.38 0.0
31 02:35 S 6 16.09 Fair CLR 24 21 83% 24 76.4 0.0
31 02:15 S 7 16.09 Fair CLR 24 21 83% 24 76.4 0.0
31 01:55 Vrbl 7 16.09 Fair CLR 24 21 83% 24 76.4 0.0
31 01:35 S 7 16.09 Fair CLR 24 21 83% 24 76.4 0.0
31 01:15 S 7 16.09 Fair CLR 24 21 83% 24 76.43 0.0
31 00:55 S 7 16.09 Fair CLR 24 21 83% 24 76.43 0.0
31 00:35 S 6 16.09 Fair CLR 25 21 79% 26 76.43 0.0
31 00:15 S 7 16.09 Fair CLR 25 21 79% 26 76.43 0.0
30 23:55 Calm 16.09 Fair CLR 25 21 79% 26 76.43 0.0
30 23:35 S 6 16.09 Fair CLR 25 21 79% 26 76.4 0.0
30 23:15 Vrbl 6 16.09 Fair CLR 25 22 83% 26 76.43 0.0
30 22:55 S 6 16.09 Fair CLR 25 22 83% 26 76.43 0.0
30 22:35 Calm 16.09 Fair CLR 25 21 79% 26 76.43 0.0
30 22:15 Calm 16.09 Fair CLR 25 22 83% 26 76.43 0.0
30 21:55 Calm 16.09 Fair CLR 25 22 83% 26 76.43 0.0
30 21:35 Calm 16.09 Fair CLR 25 22 83% 26 76.43 0.0
30 21:15 Calm 16.09 Fair CLR 25 23 89% 26 76.4 0.0
30 20:55 Calm 16.09 Fair CLR 26 23 84% 28 76.4 0.0
30 20:35 Calm 16.09 Fair CLR 25 23 89% 26 76.38 0.0
30 20:15 Calm 16.09 Fair CLR 26 23 84% 28 76.35 0.0
30 19:55 Calm 16.09 A Few Clouds FEW095 27 23 79% 30 76.35 0.0
30 19:35 Calm 16.09 Mostly Cloudy BKN095 27 23 79% 30 76.35 0.0
30 19:15 Calm 16.09 Overcast OVC090 28 23 74% 31 76.35 0.0
30 18:55 Calm 16.09 Partly Cloudy SCT090 29 23 70% 33 76.35 0.0
30 18:35 Calm 16.09 Fair CLR 30 22 62% 33 76.35 0.0
30 18:15 Calm 16.09 Fair CLR 31 22 59% 35 76.35 0.0
30 17:55 SW 11 16.09 Fair CLR 31 22 59% 35 76.35 0.0
30 17:35 SW 9 16.09 Fair CLR 32 22 55% 36 76.35 0.0
30 17:15 SW 11 16.09 Fair CLR 32 21 52% 35 76.35 0.0
30 16:55 SW 9 16.09 Fair CLR 32 22 55% 36 76.35 0.0
30 16:35 SW 11 16.09 Fair CLR 33 22 52% 37 76.35 0.0
30 16:15 SW 11 G 22 16.09 Fair CLR 33 21 49% 36 76.35 0.0
30 15:55 Vrbl 9 16.09 Fair CLR 33 22 52% 37 76.35 0.0
30 15:35 SW 15 16.09 Fair CLR 33 22 52% 37 76.38 0.0
30 15:15 S 17 16.09 A Few Clouds FEW080 FEW100 33 22 52% 37 76.4 0.0
30 14:55 S 13 16.09 A Few Clouds FEW041 FEW070 33 22 52% 37 76.43 0.0
30 14:35 Vrbl 7 G 20 16.09 Mostly Cloudy BKN041 SCT055 BKN070 31 22 59% 35 76.43 0.0
30 14:15 S 15 16.09 Partly Cloudy SCT040 SCT050 32 22 55% 36 76.45 0.0
30 13:55 S 17 16.09 Partly Cloudy FEW046 FEW060 SCT090 33 22 52% 37 76.48 0.0
30 13:35 S 9 G 22 16.09 Mostly Cloudy FEW037 SCT046 BKN090 31 22 59% 35 76.48 0.0
30 13:15 Vrbl 11 G 20 16.09 Partly Cloudy SCT037 SCT044 SCT050 32 22 55% 36 76.5 0.0
30 12:55 SW 19 16.09 Partly Cloudy FEW036 SCT044 32 22 55% 36 76.5 0.0
30 12:35 Vrbl 11 G 26 16.09 Partly Cloudy FEW033 FEW038 SCT047 32 23 59% 37 76.53 0.0
30 12:15 S 13 G 22 16.09 Fair CLR 31 22 59% 35 76.53 0.0
30 11:55 S 17 16.09 A Few Clouds FEW029 FEW034 31 23 62% 35 76.53 0.0
30 11:35 S 13 16.09 A Few Clouds FEW028 31 23 62% 35 76.56 0.0
30 11:15 SW 17 16.09 Fair CLR 30 23 66% 34 76.56 0.0
30 10:55 SW 13 G 26 16.09 Fair CLR 30 23 66% 34 76.56 0.0
30 10:35 SW 13 G 22 16.09 Fair CLR 30 23 66% 34 76.56 0.0
30 10:15 SW 15 G 24 16.09 Fair CLR 29 22 66% 32 76.53 0.0
30 09:55 SW 15 16.09 Fair CLR 28 22 70% 31 76.56 0.0
30 09:35 SW 15 16.09 Fair CLR 28 22 70% 31 76.56 0.0
30 09:15 SW 17 16.09 Fair CLR 27 22 74% 29 76.56 0.0
30 08:55 SW 11 G 22 16.09 Fair CLR 27 22 74% 29 76.56 0.0
30 08:35 S 15 16.09 Fair CLR 26 22 79% 28 76.56 0.0
30 08:15 SW 15 16.09 Fair CLR 26 22 79% 28 76.53 0.0
30 07:55 S 13 16.09 Fair CLR 25 22 83% 26 76.53 0.0
30 07:35 S 9 16.09 Fair CLR 24 22 89% 24 76.53 0.0
30 07:15 S 13 16.09 Fair CLR 23 21 89% 76.5 0.0
30 06:55 Vrbl 6 16.09 Fair CLR 20 20 100% 76.5 0.0
30 06:35 Calm 14.48 Fair CLR 20 19 94% 76.48 0.0
30 06:15 Calm 16.09 Fair CLR 20 19 94% 76.45 0.0
30 05:55 Calm 16.09 Partly Cloudy FEW060 SCT070 20 19 94% 76.45 0.0
30 05:35 Calm 16.09 Mostly Cloudy FEW050 BKN070 20 19 94% 76.45 0.0
30 05:15 Calm 16.09 Partly Cloudy FEW050 SCT065 21 19 88% 76.45 0.0
30 04:55 S 6 16.09 Partly Cloudy SCT055 SCT070 20 19 94% 76.43 0.0
30 04:35 Calm 16.09 Partly Cloudy SCT060 SCT065 20 19 94% 76.43 0.0
30 04:15 Calm 16.09 Partly Cloudy SCT060 20 19 94% 76.43 0.0
30 03:55 Calm 16.09 Partly Cloudy FEW045 SCT055 SCT065 20 18 88% 76.43 0.0
30 03:35 Calm 16.09 Partly Cloudy FEW045 FEW055 SCT065 20 18 88% 76.43 0.0
30 03:15 Calm 16.09 Partly Cloudy FEW050 SCT060 19 18 94% 76.43 0.0
30 02:55 Calm 16.09 A Few Clouds FEW050 FEW055 FEW065 20 18 88% 76.43 0.0
30 02:35 Calm 16.09 Partly Cloudy SCT050 SCT055 SCT065 20 18 88% 76.45 0.0
30 02:15 Calm 16.09 Partly Cloudy SCT050 20 19 94% 76.43 0.0
30 01:55 Calm 16.09 A Few Clouds FEW055 20 18 88% 76.43 0.0
30 01:35 Calm 16.09 Fair CLR 20 18 88% 76.45 0.0
30 01:15 Calm 16.09 Fair CLR 20 18 88% 76.45 0.0
30 00:55 Calm 16.09 Fair CLR 21 18 83% 76.45 0.0
30 00:35 Calm 16.09 Fair CLR 20 18 88% 76.48 0.0
30 00:15 Calm 16.09 Fair CLR 21 19 88% 76.48 0.0
29 23:55 Calm 16.09 A Few Clouds FEW055 21 19 88% 76.45 0.0
29 23:35 Calm 16.09 Partly Cloudy SCT055 21 19 88% 76.45 0.0
29 23:15 Calm 16.09 A Few Clouds FEW055 22 19 83% 76.45 0.0
29 22:55 Calm 16.09 Partly Cloudy SCT060 22 19 83% 76.43 0.0
29 22:35 Calm 16.09 Partly Cloudy SCT060 22 19 83% 76.45 0.0
29 22:15 Calm 16.09 A Few Clouds FEW060 22 19 83% 76.43 0.0
29 21:55 Calm 16.09 Fair CLR 23 19 78% 76.43 0.0
29 21:35 Calm 16.09 Fair CLR 23 19 78% 76.43 0.0
29 21:15 Calm 16.09 Fair CLR 23 19 78% 76.43 0.0
29 20:50 Calm 16.09 Fair CLR 24 19 74% 25 76.4 0.0
29 20:35 Calm 16.09 Fair CLR 24 20 78% 24 76.4 0.0
29 20:15 Calm 16.09 Fair CLR 24 20 78% 24 76.38 0.0
29 19:55 Calm 16.09 Fair CLR 25 20 74% 26 76.35 0.0
29 19:35 Calm 16.09 Fair CLR 25 20 74% 26 76.35 0.0
29 19:15 Calm 16.09 Fair CLR 26 20 70% 27 76.35 0.0
29 18:55 Calm 16.09 Fair CLR 28 21 66% 30 76.35 0.0
Date Time (cdt) Wind (kph) Vis. (km) Weather Sky Cond. Air Dwpt Max. Min. Relative Humidity Wind Chill (°C) Heat Index (°C) altimeter (cm) sea level (mb) 1 hr 3 hr 6 hr
6 hour
Temperature (ºC) Pressure Precipitation (cm)